EDT,Max TemperatureF,Mean TemperatureF,Min TemperatureF,Max Dew PointF,MeanDew PointF,Min DewpointF,Max Humidity, Mean Humidity, Min Humidity, Max Sea Level PressureIn, Mean Sea Level PressureIn, Min Sea Level PressureIn, Max VisibilityMiles, Mean VisibilityMiles, Min VisibilityMiles, Max Wind SpeedMPH, Mean Wind SpeedMPH, Max Gust SpeedMPH,PrecipitationIn, CloudCover, Events, WindDirDegrees
2013-3-1,64,62,57,58,50,45,90,65,53,30.00,29.96,29.92,10,10,7,13,7,,0.01,7,,306
2013-3-2,66,60,51,46,40,33,67,52,36,30.05,30.01,29.97,10,10,10,22,11,29,0.00,4,,307
2013-3-3,62,56,50,46,41,38,86,61,41,30.16,30.05,29.99,10,10,10,20,8,24,0.01,3,Rain,296
2013-3-4,64,54,43,42,36,28,71,51,29,30.23,30.18,30.14,10,10,10,18,10,23,0.00,0,,353
2013-3-5,73,62,50,55,52,44,89,65,51,30.20,30.14,30.11,10,10,10,14,5,,0.00,0,,173
2013-3-6,79,66,52,64,50,20,93,61,18,30.11,30.05,29.97,10,10,10,24,10,30,0.00,1,,264
2013-3-7,69,58,48,55,42,33,90,57,33,30.20,30.15,30.09,10,10,10,15,9,21,0.00,0,,346
2013-3-8,73,63,53,53,50,43,93,64,34,30.21,30.17,30.12,10,10,10,12,7,,0.00,0,,358
2013-3-9,73,64,55,55,52,48,89,63,48,30.20,30.17,30.12,10,10,10,15,6,22,0.00,3,,31
2013-3-10,75,70,66,61,55,51,73,58,48,30.16,30.12,30.09,10,10,10,17,11,23,0.00,4,,82
2013-3-11,77,72,70,62,59,57,73,63,52,30.10,30.04,29.98,10,10,9,16,13,23,0.00,4,,125
2013-3-12,79,76,70,69,66,62,87,74,64,30.02,29.98,29.93,10,10,10,20,14,26,0.01,5,,179
2013-3-13,77,66,57,66,56,47,94,74,43,30.14,30.06,29.99,10,10,9,18,10,24,0.00,4,,330
2013-3-14,72,63,55,53,45,31,90,57,23,30.21,30.17,30.10,10,10,10,24,11,29,0.00,1,,354
2013-3-15,72,62,53,52,47,41,77,58,41,30.26,30.21,30.17,10,10,10,14,9,17,0.00,1,,7
2013-3-16,75,64,54,54,52,49,90,64,46,30.21,30.16,30.12,10,10,10,15,4,21,0.00,2,,137
2013-3-17,75,67,59,60,57,53,90,66,48,30.17,30.11,30.05,10,10,10,15,5,22,0.00,4,,148
2013-3-18,80,74,68,71,66,60,100,78,62,30.09,30.03,29.99,10,10,8,21,10,26,0.06,5,Rain,152
2013-3-19,80,74,68,72,69,63,100,88,60,30.03,29.96,29.84,10,10,7,21,7,26,0.02,2,Rain,260
2013-3-20,81,72,64,70,65,57,100,83,53,29.99,29.92,29.83,10,8,2,16,4,31,0.01,2,,209
2013-3-21,73,68,60,63,55,43,100,70,33,29.96,29.90,29.85,10,10,10,14,9,22,0.00,1,,338
2013-3-22,75,66,57,72,60,50,93,72,52,30.02,29.97,29.92,10,10,10,16,6,,0.00,5,,134
2013-3-23,84,76,69,75,73,70,100,90,63,29.99,29.93,29.83,10,9,2,22,8,28,0.01,3,Rain,165
2013-3-24,91,83,75,75,72,67,100,80,46,29.90,29.80,29.71,10,8,5,28,11,34,0.00,4,Rain,203
2013-3-25,81,74,66,75,61,39,100,68,32,30.01,29.85,29.76,10,9,7,15,11,21,0.00,6,Rain,296
2013-3-26,69,61,51,42,34,24,54,38,19,30.22,30.10,30.01,10,10,10,21,15,29,0.00,3,,320
2013-3-27,69,57,46,45,40,33,68,53,36,30.26,30.22,30.19,10,10,10,16,10,23,0.00,0,,343
2013-3-28,71,61,52,47,42,31,69,50,28,30.28,30.23,30.19,10,10,10,14,8,16,0.00,0,,9
2013-3-29,75,66,57,52,48,42,62,52,40,30.30,30.25,30.22,10,10,10,15,8,21,0.00,1,,37
2013-3-30,75,68,64,53,50,46,61,51,38,30.28,30.23,30.19,10,10,10,13,8,16,0.00,1,,91
2013-3-31,80,74,68,67,61,53,81,66,54,30.20,30.13,30.07,10,10,10,16,11,23,0.00,1,,137